Regional Weather Roundup
Issued by NWS

Home | Current Version | Previous Version | Graphics & Text | Print | Product List | Glossary On
Versions: 1 2 3 4 5 6 7 8 9 10 11 12 13 14 15 16 17 18 19 20 21 22 23 24 25 26 27 28 29 30 31 32 33 34 35 36 37 38 39 40 41 42 43 44 45 46 47 48 49 50
000
ASUS45 KSLC 011210
RWRUT

UTAH REGIONAL WEATHER ROUNDUP
NATIONAL WEATHER SERVICE SALT LAKE CITY UT
600 AM MDT TUE SEP 01 2015

UTZ001>011-023>025-011300-

NORTHERN UTAH

CITY           SKY/WX    TMP DP  RH WIND       PRES   REMARKS
BRIGHAM CITY   CLEAR     57  39  50 CALM      29.99R
HILL AFB       CLEAR     66  39  36 E13       30.00R
LOGAN          CLEAR     51  41  68 CALM      30.00S
OGDEN          CLEAR     64  39  39 S8        29.97S
PROVO AIRPORT  PTCLDY    64  45  48 CALM      30.03R
SALT LAKE CITY PTCLDY    73  47  39 SE13      29.95S
VERNAL         CLEAR     53  45  74 CALM      30.14R
WENDOVER       MOCLDY    64  37  36 NE6       29.96S
HEBER CITY     PTCLDY    54  45  71 CALM      30.11S
WEST JORDAN    CLEAR     73  46  38 S20G26    30.00R

$$

UTZ012>022-026-027-011300-

SOUTHERN/CENTRAL UTAH

CITY           SKY/WX    TMP DP  RH WIND       PRES   REMARKS
BLANDING       CLEAR     56  47  71 NE8       30.27R
BRYCE CANYON   MOCLDY    50  46  86 W5        30.30R
CEDAR CITY     PTCLDY    65  45  48 S3        30.13R
DELTA          CLEAR     67  44  43 S10       30.04S
HANKSVILLE     PTCLDY    59  48  67 CALM      30.09R
MILFORD        CLEAR     65  45  48 SW13      30.07R
MOAB/CYNLANDS  CLEAR     63  50  62 CALM      30.06S
PRICE          CLEAR     58  48  69 CALM      30.15S
ST GEORGE      MOSUNNY   79  52  38 SE15      29.98R
KANAB          MOCLDY    61  57  88 N9        30.19R

$$

REGIONAL REPORTS     COLORADO/ARIZONA

CITY           SKY/WX    TMP DP  RH WIND       PRES   REMARKS
CRAIG, CO      PTCLDY    46  42  86 E3        30.21S
GRAND JUNCTION PTCLDY    59  51  75 SE8       30.12R
RIFLE          CLEAR     54  48  80 CALM      30.20R
MONTROSE       CLEAR     56  47  71 S5        30.21R
CORTEZ         CLEAR     54  46  74 NE6       30.21S
PAGE, AZ       PTCLDY    71  53  52 SW3       30.09R
GRAND CANYON   CLEAR     52  50  93 NE3         N/A
KINGMAN        CLEAR     75  45  34 SE8       30.01R
FLAGSTAFF      CLEAR     50  50 100 CALM      30.29F

$$

REGIONAL REPORTS    NEVADA/IDAHO/WYOMING

CITY           SKY/WX    TMP DP  RH WIND       PRES   REMARKS
LAS VEGAS, NV  CLEAR     81  41  24 S7        29.82R
ELY            MOCLDY    62  39  42 S12       30.13R
ELKO           PTCLDY    50  27  40 NE3       30.03S
POCATELLO, ID  CLEAR     47  37  68 SE5       30.00F
BURLEY         PTCLDY    46  42  86 SW3       29.96S
EVANSTON, WY   CLEAR     54  38  54 SE7       30.17F
ROCK SPRINGS   CLEAR     54  41  61 SE9       30.17R
KEMMERER       CLEAR     43  30  61 N9        30.19S

$$



USA.gov is the U.S. government's official web portal to all federal, state and local government web resources and services.